Cloud_Cover
92 92 92 92 92 92 92 92 88 88 92 92 92 92 92 92 92 92 92 92 92 92 92 92 92 92 92 88 92 92 92 92 92 92 92 88 92 92 92 92 92 92 92 92 92 92 92 92 92 92 92 92 88 88 92 92 92 88 88 88 92 92 88 76 80 80 88 80 88
92 92 92 92 88 88 92 92 92 92 92 92 92 92 92 92 92 92 92 92 92 92 92 92 92 92 92 92 92 92 92 92 92 92 92 92 92 92 92 92 92 92 92 92 92 92 92 92 92 92 92 92 92 92 92 92 92 92 92 92 92 88 88 88 88 80 88 88 88
92 92 92 92 92 92 92 92 92 92 92 92 92 92 92 92 92 92 92 92 92 92 92 92 92 92 92 92 92 92 92 92 92 92 92 92 92 92 92 92 92 92 92 92 92 92 92 100 92 92 92 92 92 92 92 92 92 92 92 92 92 92 88 88 88 88 92 92 92
92 92 92 92 92 92 92 92 92 92 92 92 92 92 92 92 92 92 92 92 92 92 92 92 92 92 92 92 92 92 92 92 92 92 92 92 92 92 92 92 92 92 92 92 92 92 92 92 92 92 92 92 92 92 92 92 88 92 92 92 92 92 92 92 92 92 92 92 88
92 92 92 92 92 92 92 92 92 92 92 92 92 92 92 92 92 92 92 92 92 92 92 92 92 92 92 92 92 92 92 92 92 92 92 92 92 92 92 92 92 92 92 92 92 92 92 88 92 92 92 92 88 88 92 92 88 88 88 92 92 92 92 88 88 88 88 88 80
92 92 92 92 92 92 92 92 92 92 92 92 92 92 92 92 92 92 92 92 92 92 92 92 92 92 92 92 92 92 92 92 92 92 92 92 92 92 92 92 92 92 92 92 92 92 88 88 80 76 76 80 80 88 88 92 92 92 88 88 92 92 92 92 88 88 88 88 92
92 92 92 92 92 92 92 92 92 92 92 92 92 92 92 92 92 92 92 92 92 92 92 92 92 92 92 92 92 92 92 92 92 92 92 92 92 92 92 92 92 92 92 92 92 88 88 80 80 80 76 76 76 80 80 92 80 76 68 76 68 80 88 76 88 88 88 88 56
92 92 92 92 92 92 92 92 92 92 92 92 92 92 92 92 92 92 92 92 92 92 92 92 92 92 92 92 92 92 92 92 92 92 92 92 92 92 92 92 92 92 92 88 88 88 88 88 80 80 80 76 80 80 80 76 76 68 64 56 56 48 48 44 48 48 44 44 20
92 92 92 92 92 92 92 92 92 92 92 92 92 92 92 92 88 80 80 80 76 80 88 92 92 92 92 92 92 92 92 92 92 92 92 92 92 92 92 92 92 92 92 92 92 92 92 88 80 76 68 76 76 68 68 64 64 48 36 32 24 12 12 12 20 20 12 20 20
92 92 92 92 92 92 92 92 92 92 92 92 88 92 92 92 92 88 88 88 88 92 92 92 92 92 92 92 92 92 92 92 92 92 92 92 92 92 92 92 92 92 92 92 92 92 88 76 76 68 68 64 64 56 48 44 24 20 20 20 24 24 20 20 20 12 12 12 12
92 92 92 92 92 92 92 80 68 76 88 88 92 92 92 92 92 92 92 92 92 92 92 92 92 92 92 92 92 92 92 92 92 92 92 92 92 92 92 92 92 92 92 92 92 88 80 68 64 56 48 44 36 36 32 24 20 20 24 20 20 12 12 8 8 8 12 20 24
92 92 92 92 92 92 92 92 92 92 92 92 92 92 92 92 92 92 92 92 92 92 92 92 92 92 92 92 92 92 92 92 92 92 92 92 92 92 92 92 92 92 88 88 76 68 64 48 44 32 24 20 12 12 12 20 24 36 44 44 24 20 12 12 8 12 24 36 32
92 92 92 92 92 92 92 92 92 92 92 92 92 92 92 92 92 92 92 92 92 92 92 92 92 92 92 92 92 92 92 92 92 92 92 92 92 92 92 92 92 80 68 64 56 48 44 44 32 24 20 12 8 8 20 32 44 48 56 56 48 44 36 36 32 48 68 68 64
92 92 92 92 92 92 92 92 92 92 92 92 92 92 92 92 92 92 92 92 92 92 92 92 92 92 92 92 92 92 92 92 92 92 92 92 92 92 92 92 88 76 56 44 44 44 44 36 32 32 32 20 12 24 44 64 64 64 68 76 76 76 76 68 68 76 76 76 68
92 92 92 92 92 92 92 92 92 92 92 92 92 92 92 92 92 92 92 92 92 92 92 92 92 92 92 92 92 92 92 92 92 92 92 92 92 92 92 88 80 68 56 44 44 48 48 44 44 48 56 56 48 48 64 76 76 76 76 80 76 68 64 64 76 64 48 48 48
92 92 92 92 92 92 92 92 92 92 92 92 92 92 92 92 92 92 92 92 92 92 92 92 92 92 92 92 92 92 92 92 92 92 92 92 88 88 88 88 80 76 68 56 56 56 56 56 64 68 76 76 80 76 68 68 64 64 64 64 56 48 48 44 56 36 20 20 36
92 92 92 92 92 92 92 92 92 92 92 92 92 92 92 92 92 92 92 92 92 92 92 92 92 92 92 92 92 92 88 88 88 88 88 88 88 88 88 88 80 80 80 76 68 68 68 68 76 76 76 76 76 64 56 56 48 48 44 36 32 32 32 24 24 20 20 24 24
92 92 92 92 92 92 92 92 92 92 92 92 92 92 92 92 92 92 92 92 92 92 92 92 92 92 92 88 88 88 88 88 88 88 88 88 88 80 80 80 80 76 76 76 76 68 68 68 68 68 68 68 56 44 36 36 36 36 36 36 32 32 24 20 24 24 24 24 24
92 92 92 92 92 92 92 92 92 92 92 92 92 92 92 92 88 88 88 88 88 88 88 88 88 88 88 88 88 88 88 88 88 88 88 88 80 80 76 76 76 76 76 76 68 68 68 68 64 64 64 48 36 32 36 36 36 36 36 32 32 32 24 24 20 20 20 20 12
92 92 92 92 92 92 92 92 88 88 88 88 88 88 88 88 88 92 92 88 88 88 88 88 88 88 88 88 88 88 88 88 88 80 80 80 76 76 76 76 68 68 68 68 68 64 56 48 48 56 56 36 36 32 32 32 32 32 24 24 24 24 20 20 12 12 12 12 12
88 88 88 92 92 92 92 92 92 92 92 92 92 92 92 92 92 92 88 88 88 88 88 88 88 88 88 88 80 80 80 80 80 80 76 68 68 68 68 64 64 56 64 64 56 56 48 44 44 44 44 32 32 32 32 24 24 24 20 20 20 12 12 12 12 12 12 8 8
88 88 88 92 92 92 92 92 92 92 92 88 88 88 88 88 88 88 88 88 88 88 80 80 80 80 80 80 80 76 76 68 68 68 68 68 64 56 48 48 56 56 56 56 48 48 44 44 36 36 32 32 24 24 24 24 20 20 20 12 12 12 12 8 12 8 8 8 8
92 92 92 92 92 92 92 88 88 88 88 88 88 88 88 88 80 80 80 80 80 80 80 76 76 76 76 68 68 68 68 68 56 48 44 44 44 44 44 48 48 48 44 44 44 36 36 32 32 32 24 24 24 24 20 20 20 20 20 20 12 12 8 8 8 8 8 8 8
92 92 88 88 88 88 88 88 88 80 80 76 80 80 80 80 76 76 76 68 64 64 56 56 68 68 68 68 68 68 64 48 44 44 44 44 44 44 44 36 36 36 36 32 32 32 32 32 32 24 24 24 20 20 20 20 20 20 20 20 12 8 8 8 8 8 8 8 8
88 80 80 80 80 76 76 76 76 76 76 76 64 56 56 56 56 56 64 68 68 64 56 56 56 56 56 48 48 48 44 44 44 36 36 36 36 32 32 32 32 32 24 32 32 32 32 32 24 24 24 24 24 20 20 20 20 12 12 12 12 12 12 12 12 12 12 12 12
76 76 76 76 68 64 56 48 56 64 64 64 56 48 48 44 44 44 44 44 44 44 44 44 44 44 44 44 44 44 44 36 36 36 36 36 36 36 36 36 32 32 32 24 24 24 24 24 24 32 32 24 20 20 12 12 12 12 8 8 12 12 12 20 12 12 8 8 8
76 68 64 64 48 44 44 36 44 44 44 44 44 44 44 44 44 44 44 44 44 36 36 36 36 36 36 32 32 36 36 36 36 36 32 32 32 32 32 32 32 24 24 24 24 24 20 20 20 24 32 20 12 12 12 12 12 12 12 12 20 20 12 20 8 0 0 0 0
64 56 48 48 48 44 44 36 36 36 36 36 36 36 36 36 36 36 36 36 36 32 32 36 32 24 20 20 20 20 20 20 24 24 24 24 24 24 24 24 24 24 20 20 12 12 20 24 36 36 32 12 20 20 20 20 20 20 20 20 12 8 0 0 0 0 0 0 0
36 32 32 32 36 36 36 32 32 32 32 32 32 24 24 24 24 24 24 24 24 24 32 32 20 12 12 12 12 12 12 12 12 12 12 12 12 12 12 12 12 12 12 12 20 20 24 24 36 44 44 44 36 36 32 20 20 12 8 12 0 0 0 0 0 0 0 0 0
8 12 12 20 20 20 20 20 20 20 12 12 12 12 12 20 20 20 20 20 20 12 12 12 12 12 12 12 12 12 12 20 12 12 20 20 20 20 20 20 20 20 20 20 20 24 24 20 24 32 36 36 32 24 20 12 8 0 0 0 0 0 0 0 0 0 0 8 8
0 0 0 0 8 8 8 8 8 8 8 8 12 8 12 12 12 12 12 12 12 12 12 12 12 12 12 12 12 12 12 12 20 20 20 20 20 20 20 20 20 20 20 20 20 12 12 8 8 12 12 0 0 0 0 0 8 8 0 0 0 0 8 8 12 12 20 24 20
0 0 8 8 8 12 12 12 12 12 12 12 12 12 12 12 12 12 12 12 12 12 12 12 12 20 20 20 20 20 20 20 20 20 20 20 20 20 20 20 20 20 20 20 8 0 0 0 0 0 0 0 8 8 8 8 8 12 20 20 20 36 56 48 44 56 76 80 80
8 8 12 12 12 12 12 12 12 12 12 12 12 12 12 12 12 12 12 12 20 20 20 20 20 20 20 20 20 20 20 20 20 20 20 20 20 20 20 20 12 8 0 0 0 0 0 0 0 0 0 0 32 24 8 0 8 24 44 44 24 20 24 44 56 68 68 68 80
12 12 8 8 8 8 8 8 8 8 8 8 8 12 12 12 12 12 12 12 12 12 12 12 8 8 8 0 0 0 0 0 0 0 0 0 0 0 0 0 0 0 0 0 0 0 0 0 0 0 8 20 68 64 36 24 20 24 36 56 76 48 20 56 68 80 88 88 88
24 20 12 8 8 8 8 8 8 8 8 8 8 8 8 0 0 0 0 0 0 0 0 0 0 0 0 0 0 0 0 0 0 0 0 0 0 0 0 0 0 0 0 0 0 0 0 0 0 0 12 56 80 80 76 68 44 56 80 80 80 64 44 32 44 68 80 76 80
32 24 20 20 8 8 0 0 0 0 0 0 0 0 0 0 0 0 0 0 0 0 0 0 0 0 0 0 0 0 0 0 0 0 0 0 0 0 0 0 0 0 0 0 0 0 0 0 0 0 20 68 80 68 48 36 64 68 64 64 56 64 68 88 80 80 80 64 68
24 32 24 32 20 12 8 0 0 0 0 0 0 0 0 0 0 0 0 0 0 0 0 0 0 0 0 0 0 0 0 0 0 0 0 0 0 0 0 0 0 0 0 0 0 0 0 0 0 0 8 24 68 88 80 80 48 24 20 32 64 64 68 88 76 76 88 88 44
32 32 24 24 24 32 24 8 0 0 0 0 0 0 0 0 0 0 0 0 0 0 0 0 0 0 0 0 0 0 0 0 0 0 0 0 0 0 0 0 0 0 0 0 0 0 0 0 0 0 12 48 76 80 80 88 56 48 56 68 80 88 88 88 88 88 88 88 44
32 44 44 32 24 24 24 8 0 0 0 0 0 0 0 0 0 0 0 0 0 0 0 0 0 0 0 0 0 0 0 0 0 0 0 0 0 0 0 0 0 0 0 0 0 0 0 0 0 8 32 88 68 68 76 88 76 80 88 88 88 88 88 88 88 88 88 88 48
24 32 32 20 12 12 12 8 0 0 0 0 0 0 0 0 0 0 0 0 0 0 0 0 0 0 0 0 0 0 0 0 0 0 0 0 0 0 0 0 0 0 0 0 0 0 0 0 0 24 48 64 56 68 80 64 80 88 80 80 80 80 88 88 88 88 88 88 68
8 12 12 8 0 0 8 0 0 0 0 0 0 0 0 0 0 0 0 0 0 0 0 0 0 0 0 0 0 0 0 0 0 0 0 0 0 0 0 0 0 0 0 0 0 0 0 0 0 44 80 64 80 88 80 56 76 80 80 80 80 80 80 88 88 88 88 88 88